TimePDT,TemperatureF,Dew PointF,Humidity,Sea Level PressureIn,VisibilityMPH,Wind Direction,Wind SpeedMPH,Gust SpeedMPH,PrecipitationIn,Events,Conditions,WindDirDegrees,DateUTC
12:56 AM,46.0,28.9,51,30.01,10.0,NW,8.1,20.7,N/A,,Clear,320,2013-04-30 07:56:00
1:56 AM,44.1,28.9,55,30.00,10.0,WNW,11.5,24.2,N/A,,Clear,300,2013-04-30 08:56:00
2:56 AM,42.1,30.0,62,30.02,10.0,WNW,12.7,26.5,N/A,,Clear,300,2013-04-30 09:56:00
3:56 AM,41.0,30.0,65,30.03,10.0,NW,11.5,24.2,N/A,,Clear,310,2013-04-30 10:56:00
4:56 AM,39.0,30.0,70,30.04,10.0,WNW,10.4,23.0,N/A,,Clear,300,2013-04-30 11:56:00
5:56 AM,37.9,30.0,73,30.06,10.0,Variable,6.9,20.7,N/A,,Clear,0,2013-04-30 12:56:00
6:56 AM,37.9,30.0,73,30.09,10.0,Variable,3.5,-,N/A,,Clear,0,2013-04-30 13:56:00
7:56 AM,41.0,28.9,62,30.13,10.0,Variable,5.8,-,N/A,,Partly Cloudy,0,2013-04-30 14:56:00
8:56 AM,44.1,27.0,51,30.14,10.0,North,10.4,17.3,N/A,,Clear,350,2013-04-30 15:56:00
9:56 AM,48.0,25.0,41,30.14,10.0,NNW,8.1,16.1,N/A,,Clear,340,2013-04-30 16:56:00
10:56 AM,50.0,23.0,35,30.14,10.0,NNW,9.2,19.6,N/A,,Clear,340,2013-04-30 17:56:00
11:56 AM,55.0,21.9,28,30.13,10.0,North,9.2,-,N/A,,Clear,350,2013-04-30 18:56:00
12:56 PM,57.0,19.0,23,30.12,10.0,NNE,8.1,17.3,N/A,,Clear,20,2013-04-30 19:56:00
1:56 PM,60.1,19.0,20,30.13,10.0,Variable,5.8,-,N/A,,Clear,0,2013-04-30 20:56:00
2:56 PM,60.1,19.0,20,30.14,10.0,WNW,13.8,25.3,N/A,,Clear,290,2013-04-30 21:56:00
3:56 PM,62.1,10.0,13,30.14,10.0,NNW,8.1,17.3,N/A,,Clear,340,2013-04-30 22:56:00
4:56 PM,59.0,12.9,16,30.16,10.0,North,11.5,24.2,N/A,,Clear,350,2013-04-30 23:56:00
5:56 PM,57.9,16.0,19,30.18,10.0,NNW,9.2,16.1,N/A,,Clear,330,2013-05-01 00:56:00
6:56 PM,55.9,19.0,24,30.18,10.0,Variable,5.8,-,N/A,,Clear,0,2013-05-01 01:56:00
7:56 PM,52.0,21.0,30,30.20,10.0,NNW,8.1,-,N/A,,Clear,330,2013-05-01 02:56:00
8:56 PM,48.9,21.9,35,30.22,10.0,Variable,5.8,-,N/A,,Clear,0,2013-05-01 03:56:00
9:56 PM,46.0,21.9,39,30.26,10.0,Variable,4.6,-,N/A,,Clear,0,2013-05-01 04:56:00
10:56 PM,43.0,23.0,45,30.28,10.0,Calm,Calm,-,N/A,,Clear,0,2013-05-01 05:56:00
11:56 PM,44.1,23.0,43,30.29,10.0,Variable,4.6,-,N/A,,Clear,0,2013-05-01 06:56:00